sat.trackr.live / text

‹ back to catalog

STARLINK-36294

NORAD 68531 · 2026-068Z

PAYLOAD ACTIVE UNKNOWN

§ Identity

Operator
Country
US
Launch date
2026-03-30
Launch site
AFETR
Launch vehicle
Mass (kg)
RCS (m²)

Purposes: comms

External: N2YO · Heavens-Above · Gunter

§ Orbital elements

Epoch: 2026-09-20T03:38:27.405312Z

Period
93.85 min
Inclination
53.1592°
Eccentricity
0.0001268
Mean motion
15.34392189 rev/d
Perigee alt
461.9 km
Apogee alt
463.6 km
Semi-major
6,840.9 km
B*
3.6358e-4
RAAN
303.4786°
Arg perigee
92.3159°
Mean anomaly
267.7988°
Rev number
2,675

§ Raw data

STARLINK-362941 68531U 26068Z   26263.15170608  .00011925  00000+0  36358-3 0  99972 68531  53.1592 303.4786 0001268  92.3159 267.7988 15.34392189 26759

JSON: /api/v1/satellites/68531 · /tle

For live sub-satellite position, see the globe view (requires WebGL).

§ Visibility from observer

Set your observer location to see the next 7 days of passes ≥ 10°. The values pass through the URL so the page stays shareable.

No JS? Fill the form by hand. The geolocation button needs JavaScript.